www.pogodaiklimat.ru
ПОГОДА в Уилинге
Время
и дата
06:53 28.09
07:30 28.09
07:53 28.09
08:34 28.09
08:53 28.09
09:48 28.09
09:53 28.09
10:30 28.09
10:53 28.09
11:42 28.09
11:51 28.09
11:52 28.09
12:06 28.09
12:15 28.09
12:53 28.09
13:38 28.09
13:53 28.09
14:03 28.09
14:53 28.09
15:01 28.09
15:27 28.09
15:53 28.09
16:12 28.09
16:53 28.09
17:53 28.09
18:04 28.09
18:32 28.09
18:53 28.09
19:53 28.09
20:04 28.09
20:17 28.09
20:53 28.09
21:53 28.09
22:53 28.09
23:48 28.09
23:53 28.09
00:05 29.09
00:08 29.09
00:26 29.09
00:31 29.09
00:39 29.09
00:51 29.09
00:53 29.09
01:17 29.09
01:53 29.09
02:01 29.09
02:06 29.09
02:16 29.09
Ветер
(напр.,м/с)
Видим. Явления Облачность Т
(С)
Тd
(С)
f
(%)
Тe
(С)
Тes
(С)
Комфортность P
(гПа)
Po
(гПа)
Тmin
(С)
Tmax
(С)
R
(мм)
R24
(мм)
S
(см)
ЮЗ 2 16 км 10/10 180 м +6.7 +6.1 96 +4 +4 1024.0 979.8 +6.1 +7.8 1.8
З 3 10 км слабый дождь, дымка 10/10 120 m
[Ns]
+7.2 +6.7 97 +4 +4 980.2
З 2 8 км слабый дождь, дымка 10/10 90 m
[Ns]
+7.2 +6.7 97 +5 +5 1024.4 980.2
З 2 8 км дымка 10/10 60 м +7.8 +7.2 96 +6 +6 980.8
ЮЗ 3 6 км слабый дождь, дымка 10/10 60 m
[Ns]
+8.3 +7.2 93 +6 +6 1025.1 980.8
З 3 13 км 10/10 90 м +9.0 +8.0 93 +6 +6 981.8
З 2 13 км 10/10 90 м +9.4 +8.3 93 +8 +8 1026.1 981.8
З 3 16 км 10/10 150 м +10.0 +8.9 93 +8 +8 982.1
З 3 16 км 10/10 210 м +11.1 +9.4 89 +9 +9 1026.6 982.4
З 3 16 км 10/10 300 м +12.2 +8.9 80 +11 +11 982.4
нст 2 16 км 10/10 270 м +13.0 +9.0 77 +12 +12 982.4
нст 2 16 км 10/10 270 м +12.8 +9.4 80 +12 +12 1026.6 982.4
З 3 16 км 10/10 420 м +12.8 +8.9 77 +11 +11 982.4
ЮЗ 4 16 км 10/10 510 м +12.8 +8.9 77 +11 +11 982.4
З 3 16 км 5/5 480 м +13.9 +9.4 74 +13 +18 1026.4 982.1 +6.7 +14.4
ЮЗ 4 16 км 8/8 630 м +14.4 +10.0 75 +13 +15 982.1
СЗ 6 10 км слабый дождь 10/10 570 m
[Ns]
+12.2 +9.4 83 +9 +9 1026.4 982.1
З 4 16 км слабый дождь 10/8 510 m
[Ac Ns]
+11.7 +9.4 86 +9 +10 982.1
З 4 16 км 5/0 2100 m
[Ac]
+15.0 +10.6 75 +14 +18 1026.6 982.4
СЗ 5
{8}
16 км гроза 5/0 2100 m
[Ac]
+13.9 +10.0 77 +12 +14 982.4
З 5 16 км 8/8 930 m
[Ac]
+13.9 +9.4 74 +12 +13 982.7
штиль 0 14 км слабый дождь 10/8 660 m
[Ac Ns]
+13.3 +9.4 77 +13 +14 1027.1 982.7 3.3
СЗ 2 16 км 10/10 660 м +12.2 +9.4 83 +11 +11 983.1
СЗ 2 16 км 10/8 1470 m
[Ac]
+12.8 +10.0 83 +12 +12 1027.4 983.1
СЗ 2 16 км 10/8 900 m
[Ac]
+12.2 +10.6 90 +11 +11 1027.9 983.7
С 2 16 км 10/10 720 м +12.2 +10.6 90 +11 +11 983.7
СЗ 2 16 км слабый дождь 10/10 390 m
[Ns]
+11.7 +10.6 93 +10 +10 984.0
З 3 16 км 10/10 960 м +11.7 +10.0 89 +10 +10 1028.4 984.0 +11.7 +15.6 4.6
СЗ 2 16 км 5/5 750 м +11.1 +9.4 89 +10 +10 1028.9 984.7
СЗ 2 16 км 8/8 720 м +11.1 +9.4 89 +10 +10 984.7
СЗ 3 16 км 5/5 690 м +11.1 +9.4 89 +9 +9 984.7
СЗ 2 16 км ясно +10.6 +9.4 92 +9 +9 1029.7 985.3
З 2 16 км ясно +10.0 +8.9 93 +8 +8 1029.9 985.7
СЗ 2 16 км ясно +9.4 +8.9 97 +8 +8 1030.2 986.0
СЗ 2 2 км дымка ясно +9.0 +8.0 93 +7 +7 985.7
СЗ 2 800 м туман ясно +8.9 +7.8 93 +7 +7 1030.1 985.7
СЗ 2 2 км дымка ясно +8.9 +8.3 96 +7 +7 986.0
СЗ 2 5 км дымка ясно +8.9 +8.3 96 +7 +7 985.7
СЗ 2 3 км дымка ясно +8.9 +8.3 96 +7 +7 986.0
штиль 0 800 м туман ясно +8.9 +8.3 96 +8 +8 986.0
СЗ 2 400 м туман ?/? +8.3 +7.8 97 +6 +6 986.0
штиль 0 400 м туман ?/? +8.0 +8.0 100 +7 +7 986.0
штиль 0 400 м туман ?/? +8.3 +7.8 97 +7 +7 1030.2 986.0 +7.8 +11.7
С 2 400 м туман ?/? +8.3 +7.8 97 +6 +6 986.0
С 3 400 м туман ?/? +8.9 +8.3 96 +6 +6 1030.3 986.0
С 4 1 км дымка ?/? +9.4 +8.9 97 +6 +6 986.0
С 4 3 км дымка 10/10 60 м +9.4 +8.9 97 +6 +6 986.0
С 4 3 км дымка 10/10 60 м +9.4 +8.9 97 +6 +6 986.0
Местоположение метеостанции Wheeling Ohio County Airport: широта 40.1703 долгота -80.6444 высота над уровнем моря 364 м.
В архиве по умолчанию представлена погода в Уилинге за последние 1-2 суток. Обновление информации о фактической погоде в базе происходит ежечасно! Архивные данные за месяц целиком и за предыдущие месяцы Вы можете получить, выбрав интересующий диапазон дат из раскрывающегося списка и нажав кнопку "Ввод!".
Внимание! Архив погоды МЕТАР в базе сайта по станциям, не включенным в климатический монитор, хранится не более 60 дней. Нет смысла пытаться выбрать более раннюю дату.
*Определитесь, кто Вы:
Внимание! Время в таблицах - местное (без учета летнего времени). Для получения всемирного времени необходимо вычесть поправку, которая равна -5 ч.
Смотрите также архив погоды в соседних городах и на ближайших метеорологических станциях:
Партнеры нашего сайта:      
Пояснения к столбцам:
  • Ветер - указаны скорость ветра в м/с - средняя за 10 мин, порывы в срок и между сроками (в фигурных скобках) и направление, откуда дует ветер: С - северный,
  • СВ - северо-восточный, В - восточный, ЮВ - юго-восточный, Ю - южный, ЮЗ - юго-западный, З - западный, СЗ - северо-западный.
  • Видимость - горизонтальная дальность видимости в метрах или километрах. При видимости от 1 до 10 км при отсутствии осадков обычно наблюдается дымка, при ухудшении видимости до 1 км и менее - туман. В сухую погоду видимость может ухудшаться дымом, пылью или мглою.
  • Явления - указаны атмосферные явления, наблюдавшиеся в срок или в последний час перед сроком; фигурными скобками обозначены явления, наблюдавшиеся между сроками (за 1-3 часа до срока); квадратными скобками обозначены град или гололедные отложения с указанием их диаметра в мм.
  • Облачность - указаны через наклонную черту общая и нижняя облачность в баллах и высота нижней границы облаков в метрах; квадратными скобками обозначены формы облаков: Ci - перистые, Cs - перисто-слоистые, Cc - перисто-кучевые, Ac - высококучевые, As - высокослоистые, Sc - слоисто-кучевые, Ns - слоисто-дождевые, Cu - кучевые, Cb - кучево-дождевые. Подробнее классификацию облаков см. в Атласе облаков (PDF).
  • T - Температура воздуха - температура, измеренная на высоте 2 м над землей.
  • Td - Температура точки росы - температура, при понижении до которой содержащийся в воздухе водяной пар достигнет насыщения.
  • f - Относительная влажность воздуха - влажноcть воздуха, измеренная на высоте 2 м над землей.
  • Te - Эффективная температура - температура, которую ощущает одетый по сезону человек в тени. Характеристика душности погоды. При расчете учитывается влияние влажности воздуха и скорости ветра на теплоощущения человека.
  • Tes - Эффективная температура на солнце - температура, которую ощущает человек, с поправкой на солнечный нагрев. Характеристика знойности погоды. Зависит от высоты солнца над горизонтом, облачности и скорости ветра. Ночью, в пасмурную погоду, а также при ветре 12 м/с и более поправка равна нулю.
  • P - Атмосферное давление - приведенное к уровню моря атмосферное давление.
  • Po - Атмосферное давление - измеренное на уровне метеостанции атмосферное давление.
  • Tmin - Минимальная температура - минимум температуры воздуха на высоте 2 м над землей.
  • Tmax - Максимальная температура - максимум температуры воздуха на высоте 2 м над землей.
  • R - Количество осадков - Количество выпавших осадков за период времени, мм. При наведении курсора мыши на число - период времени, за который выпало указанное количество осадков.
  • R24 - Количество осадков - Количество выпавших осадков за 24 часа, мм.
  • S - Снежный покров - Высота снежного покрова, см. При наведении курсора мыши на число - состояние снежного покрова и степень покрытия местности в баллах.